Location: Darmstadt
(49.8706°N, 8.6494°E)
Time: 07:30:36
(UTC+01:00)

Cosmos 1656 - Pass Details

Date: 31 October 2020
Orbit: 797 x 851 km, 71.1° (Epoch: 03 December)

Event Time Altitude Azimuth Distance (km) Brightness Sun altitude
Rises 18:35:46 0° 215° (SW) 3,347 7.4 -15.3°
Reaches altitude 10° 18:38:12 10° 218° (SW) 2,426 6.7 -15.6°
Maximum altitude 18:43:45 68° 302° (WNW) 903 4.0 -16.5°
Drops below altitude 10° 18:49:25 10° 25° (NNE) 2,475 5.9 -17.5°
Enters shadow 18:50:51 - 27° (NNE) 3,016 6.3 -17.7°
